[[{"header":{"parameterUnit":"m.s-1","parameterCategory":1,"la1":30.2991,"la2":30.254,"lo1":-89.0895,"lo2":-89.0444,"dy":0.0017,"dx":0.0017,"nx":28,"ny":28,"refTime":"2025-02-27T03:00:00:Z","depth":0,"parameterNumber":2,"parameterNumberName":"U-component_of_WINDS"},"data":[0,0,0,0,0,0,0,0,0,0,0,0,0,0,0,0,0,0,0,0,0,0,0,0,0,0,0,0,0,0,0,0,0,0,0,0,0,0,0,0,0,0,0,0,0,0,0,0,0,0,0,0,0,0,0,0,0,0,0.8872,0.8873,0,0.9027,0.9029,0.9031,0.9099,0.9099,0.9098,0.9098,0.9259,0.9263,0.9267,0,0,0,0,0,0,0,0,0,0,0,0,0,0.8634,0.8638,0.8871,0.8873,0.8875,0.9027,0.9029,0.9031,0.9099,0.9099,0.9098,0.9098,0.9257,0.9262,0.9268,0,0,0,0,0,0,0,0,0,0,0,0,0,0.8758,0.8639,0.8871,0.8927,0.8934,0.9027,0.9029,0.9032,0.9099,0.9099,0.9098,0.9098,0.9255,0.9262,0.9269,0.9317,0,0,0.9289,0.9292,0,0,0,0,0,0,0,0,0.8751,0.8767,0.8917,0.8924,0.8931,0.9043,0.9004,0.9128,0.9099,0.9036,0.9098,0.9098,0.9187,0.92,0.923,0.9325,0.9332,0.929,0.9294,0.9297,0.9299,0,0,0,0,0,0,0,0.8742,0.876,0.8933,0.8919,0.8928,0.8945,0.8962,0.9028,0.9112,0.9042,0.9047,0.9064,0.9191,0.9223,0.9234,0.9334,0.929,0.9296,0.93,0.9302,0.9479,0.9479,0,0,0,0,0,0,0.8724,0.8753,0.8928,0.8938,0.8838,0.895,0.8969,0.9008,0.9111,0.9127,0.9065,0.9067,0.9212,0.9226,0.924,0.9305,0.9297,0.9303,0.9307,0.9478,0.9479,0.9479,0,0,0,0,0,0,0.8719,0.8739,0.8922,0.8847,0.8871,0.8954,0.8997,0.9011,0.9043,0.9129,0.9144,0.9082,0.9212,0.923,0.9298,0.9311,0.9306,0.9312,0.9477,0.9478,0.9479,0.9434,0,0,0,0,0,0,0.8712,0.8737,0.8756,0.8847,0.8875,0.8977,0.8998,0.9014,0.9054,0.9059,0.9149,0.9163,0.9213,0.9287,0.9305,0.932,0.9318,0.9476,0.9478,0.9479,0.9435,0.9433,0.9432,0,0,0,0,0,0.8703,0.8737,0.8756,0.8777,0.89,0.8977,0.8994,0.905,0.9055,0.9075,0.913,0.9161,0.9307,0.9294,0.9314,0.9332,0.9476,0.9477,0.9479,0.9435,0.9433,0.9432,0,0,0,0,0,0,0.8645,0.875,0.8773,0.8837,0.8898,0.8988,0.9015,0.9046,0.9107,0.9109,0.9176,0.9196,0.9258,0.9302,0.9285,0.9385,0.9394,0.9399,0.9354,0.9353,0.9352,0.934,0.9323,0,0,0,0,0,0.864,0.8693,0.8782,0.883,0.8859,0.8932,0.8967,0.9006,0.9071,0.9098,0.9158,0.9221,0.9281,0.932,0.938,0.9441,0.9462,0.9464,0.9462,0.9461,0.9465,0.9501,0.9503,0.9484,0.9484,0.9484,0,0,0.863,0.8693,0.8723,0.882,0.8872,0.8926,0.8953,0.9009,0.905,0.9106,0.9174,0.922,0.9295,0.936,0.9391,0.9398,0.9475,0.9462,0.9461,0.9466,0.9503,0.9505,0.9506,0.9485,0.9485,0.9485,0,0,0.8639,0.8692,0.8738,0.879,0.8867,0.8916,0.8927,0.9013,0.9046,0.9115,0.9159,0.9209,0.9311,0.9363,0.9403,0.9432,0.9462,0.945,0.9443,0.9478,0.948,0.9481,0.9492,0.9496,0.9453,0.9453,0.9453,0,0.8616,0.8699,0.8758,0.8812,0.8854,0.8907,0.8955,0.9002,0.9095,0.9123,0.913,0.926,0.9314,0.9392,0.9399,0.9429,0.9445,0.944,0.9474,0.9477,0.9479,0.9491,0.9495,0.9451,0.9452,0.9452,0.9452,0,0.8668,0.8725,0.8753,0.8842,0.8887,0.8937,0.9005,0.9043,0.9078,0.9125,0.9195,0.9262,0.9337,0.9359,0.9393,0.9442,0.9444,0.9461,0.9472,0.9478,0.949,0.9495,0.9448,0.9449,0.945,0.945,0,0,0.8645,0.8766,0.8776,0.8817,0.8907,0.8953,0.9006,0.9079,0.9111,0.9174,0.9221,0.9307,0.9324,0.9369,0.9409,0.944,0.946,0.9454,0.9457,0.9453,0.9519,0.9506,0.951,0.948,0.9481,0.9482,0.9513,0,0.8666,0.8764,0.8819,0.8894,0.8948,0.8999,0.9046,0.9107,0.9153,0.9206,0.9257,0.9317,0.9334,0.9362,0.9395,0.945,0.9474,0.9449,0.9525,0.9527,0.9505,0.9516,0.9502,0.9527,0.9518,0.9519,0.9519,0,0.8705,0.8767,0.8847,0.8932,0.8956,0.8997,0.9069,0.9119,0.9189,0.9221,0.9271,0.9311,0.9371,0.9376,0.9459,0.944,0.9475,0.9507,0.951,0.9519,0.9524,0.9526,0.9537,0.9541,0.9527,0.9527,0.9526,0,0.8681,0.8784,0.8846,0.888,0.898,0.9007,0.9051,0.912,0.9161,0.9224,0.9252,0.9321,0.9359,0.9411,0.947,0.9468,0.9547,0.9557,0.9575,0.9574,0.959,0.9588,0.9607,0.9611,0.9611,0.9611,0.9611,0,0.8699,0.8746,0.8836,0.8874,0.8929,0.8992,0.9045,0.9092,0.9154,0.9202,0.9251,0.9295,0.937,0.9424,0.947,0.9531,0.9548,0.9576,0.9588,0.9572,0.9568,0.9596,0.9595,0.9612,0.9612,0.9612,0.9611,0,0.8682,0.8743,0.8814,0.8904,0.8927,0.8963,0.904,0.9079,0.9128,0.9189,0.9207,0.9284,0.935,0.9413,0.9502,0.9533,0.9595,0.961,0.9571,0.9577,0.9592,0.959,0.9629,0.9638,0.9636,0.9635,0.9635,0,0.869,0.8727,0.8821,0.8857,0.8899,0.8956,0.8998,0.9062,0.9103,0.9187,0.9216,0.9285,0.9345,0.9448,0.9512,0.958,0.9598,0.9607,0.9608,0.9591,0.9599,0.9596,0.96,0.9605,0.9605,0.9605,0.9605,0,0.8698,0.8727,0.8785,0.8855,0.8903,0.8961,0.9021,0.9047,0.9123,0.9167,0.9235,0.9281,0.9372,0.9441,0.9516,0.9561,0.9596,0.9604,0.9612,0.9596,0.9572,0.9586,0.9567,0.9602,0.9603,0.9603,0.9603,0.9603,0.8694,0.873,0.8801,0.8865,0.8917,0.8971,0.9013,0.9067,0.9124,0.9203,0.9237,0.9306,0.9376,0.9482,0.9526,0.9582,0.959,0.9601,0.9604,0.9606,0.9603,0.9563,0.9596,0.9596,0.9596,0.9596,0.9596,0,0.8705,0.8753,0.8811,0.8893,0.8944,0.8971,0.9039,0.9079,0.9139,0.9202,0.9259,0.9337,0.9405,0.9474,0.9545,0.9576,0.9594,0.9593,0.9591,0.9601,0.9591,0.9577,0.9577,0.9577,0.9577,0.9577,0.9577,0.9577,0.8716,0.8779,0.8817,0.8906,0.8955,0.9022,0.9058,0.9109,0.916,0.9245,0.9301,0.9346,0.9412,0.9488,0.9551,0.957,0.9594,0.9589,0.9612,0.9601,0.9602,0.9603,0.9591,0.9593,0.9593,0.9618,0.9618,0.9618]},{"header":{"parameterUnit":"m.s-1","parameterCategory":1,"la1":30.2991,"la2":30.254,"lo1":-89.0895,"lo2":-89.0444,"dy":0.0017,"dx":0.0017,"nx":28,"ny":28,"refTime":"2025-02-27T03:00:00:Z","depth":0,"parameterNumber":3,"parameterNumberName":"V-component_of_WINDS"},"data":[0,0,0,0,0,0,0,0,0,0,0,0,0,0,0,0,0,0,0,0,0,0,0,0,0,0,0,0,0,0,0,0,0,0,0,0,0,0,0,0,0,0,0,0,0,0,0,0,0,0,0,0,0,0,0,0,0,0,2.1366,2.1366,0,2.1328,2.1328,2.1327,2.1302,2.1302,2.1302,2.1302,2.1259,2.1258,2.1257,0,0,0,0,0,0,0,0,0,0,0,0,0,2.1413,2.1412,2.1366,2.1366,2.1365,2.1328,2.1328,2.1327,2.1302,2.1302,2.1302,2.1302,2.1259,2.1258,2.1257,0,0,0,0,0,0,0,0,0,0,0,0,0,2.1386,2.1412,2.1366,2.1348,2.1346,2.1328,2.1328,2.1327,2.1302,2.1302,2.1302,2.1302,2.126,2.1258,2.1257,2.1252,0,0,2.1252,2.1251,0,0,0,0,0,0,0,0,2.1387,2.1384,2.1351,2.135,2.1347,2.132,2.1329,2.1302,2.1302,2.1319,2.1302,2.1302,2.1279,2.1276,2.1269,2.125,2.1248,2.1252,2.1251,2.125,2.125,0,0,0,0,0,0,0,2.1389,2.1385,2.1351,2.1351,2.1348,2.1341,2.1337,2.1323,2.1301,2.1317,2.1316,2.1312,2.1278,2.1271,2.1268,2.1248,2.1252,2.1251,2.125,2.1249,2.1223,2.1223,0,0,0,0,0,0,2.1394,2.1387,2.1352,2.135,2.1367,2.134,2.1336,2.1329,2.1301,2.1296,2.1312,2.1311,2.1273,2.127,2.1266,2.126,2.125,2.1249,2.1248,2.1223,2.1223,2.1224,0,0,0,0,0,0,2.1395,2.1391,2.1354,2.1368,2.1363,2.134,2.1332,2.1328,2.1321,2.1297,2.1292,2.1309,2.1273,2.1269,2.1256,2.1258,2.1248,2.1247,2.1223,2.1223,2.1223,2.1246,0,0,0,0,0,0,2.1397,2.1392,2.1391,2.1368,2.1362,2.1345,2.1332,2.1328,2.1319,2.1317,2.1293,2.1288,2.1273,2.1259,2.1255,2.1256,2.1246,2.1223,2.1223,2.1223,2.1245,2.1248,2.1249,0,0,0,0,0,2.1399,2.1398,2.1391,2.1387,2.136,2.1346,2.1342,2.1325,2.1319,2.1318,2.1302,2.1289,2.1258,2.1258,2.1253,2.1254,2.1222,2.1223,2.1223,2.1245,2.1247,2.1249,0,0,0,0,0,0,2.142,2.1394,2.1387,2.1379,2.1365,2.1341,2.1339,2.1328,2.1314,2.1313,2.1291,2.1285,2.1275,2.1263,2.1263,2.1248,2.1239,2.1238,2.1257,2.1259,2.1261,2.1264,2.1245,0,0,0,0,0,2.1424,2.1415,2.1393,2.1388,2.1382,2.1362,2.1354,2.1343,2.1327,2.132,2.1303,2.1287,2.1274,2.1265,2.1252,2.1243,2.1238,2.1241,2.1243,2.1245,2.1245,2.124,2.1241,2.1225,2.1225,2.1225,0,0,2.1431,2.1417,2.1412,2.1392,2.138,2.137,2.1357,2.1347,2.134,2.1318,2.1306,2.1293,2.1274,2.1264,2.1258,2.1253,2.1248,2.1246,2.1247,2.1246,2.1241,2.1242,2.1244,2.1225,2.1225,2.1225,0,0,2.1441,2.1429,2.1424,2.1412,2.1394,2.1381,2.138,2.1358,2.135,2.1338,2.1322,2.1312,2.1289,2.1276,2.1267,2.1272,2.126,2.1268,2.1278,2.1273,2.1274,2.1275,2.1278,2.1279,2.1268,2.1268,2.1268,0,2.1452,2.1439,2.1422,2.1414,2.1406,2.1387,2.1382,2.1371,2.1349,2.1343,2.1337,2.131,2.1295,2.1282,2.1283,2.1276,2.1273,2.127,2.1276,2.1277,2.1277,2.1279,2.128,2.1269,2.1269,2.1269,2.1268,0,2.1454,2.1445,2.1443,2.1424,2.1415,2.1408,2.139,2.1382,2.1371,2.1358,2.1346,2.1328,2.1311,2.1307,2.1295,2.1292,2.1289,2.128,2.1271,2.128,2.1282,2.1282,2.127,2.127,2.127,2.1269,0,0,2.1476,2.1449,2.1448,2.144,2.1419,2.1411,2.1403,2.1388,2.1382,2.1367,2.136,2.1341,2.1333,2.1322,2.1309,2.1305,2.1311,2.1296,2.1295,2.13,2.1306,2.1314,2.1315,2.1303,2.1303,2.1303,2.1308,0,2.1482,2.1469,2.1454,2.1445,2.1436,2.1419,2.1412,2.1398,2.1385,2.1375,2.1361,2.1349,2.1338,2.1332,2.1327,2.1311,2.1312,2.131,2.1295,2.1294,2.1301,2.1316,2.1323,2.133,2.1309,2.1309,2.1309,0,2.1488,2.1477,2.1468,2.1448,2.1444,2.1438,2.1423,2.1414,2.1397,2.1389,2.1377,2.1364,2.1353,2.1345,2.133,2.133,2.1322,2.1313,2.1313,2.1311,2.1303,2.1315,2.1331,2.1332,2.1309,2.1309,2.1309,0,2.1506,2.1487,2.148,2.1473,2.145,2.1447,2.1437,2.142,2.1412,2.1398,2.1393,2.1377,2.1369,2.1357,2.1339,2.1335,2.1326,2.1316,2.1318,2.1319,2.1317,2.1318,2.1334,2.1312,2.1312,2.1312,2.1312,0,2.1515,2.151,2.1488,2.1483,2.1477,2.1459,2.1453,2.1441,2.1427,2.1419,2.1402,2.1395,2.1371,2.1361,2.1347,2.1337,2.1333,2.1325,2.1321,2.1327,2.1328,2.1322,2.1321,2.1312,2.1312,2.1312,2.1312,0,2.1534,2.1518,2.1509,2.1489,2.1484,2.148,2.1462,2.1456,2.1443,2.1433,2.143,2.1409,2.1396,2.1377,2.1357,2.1348,2.134,2.1334,2.1346,2.1344,2.1348,2.1348,2.136,2.1361,2.1339,2.1339,2.1339,0,2.1541,2.1538,2.1517,2.1512,2.1503,2.1493,2.1486,2.1467,2.146,2.1441,2.1438,2.1424,2.1411,2.1391,2.1373,2.1358,2.1352,2.1357,2.1349,2.1355,2.1352,2.1353,2.1353,2.1359,2.1359,2.136,2.136,0,2.1556,2.1549,2.1539,2.1527,2.1518,2.1507,2.1495,2.1491,2.147,2.1462,2.1449,2.144,2.1421,2.1407,2.139,2.1378,2.1366,2.1363,2.1362,2.1368,2.1376,2.1372,2.1352,2.1362,2.1362,2.1362,2.1362,2.1362,2.157,2.1566,2.1551,2.1541,2.153,2.152,2.1514,2.1501,2.149,2.1475,2.1464,2.1452,2.1435,2.1411,2.14,2.139,2.1384,2.1384,2.1384,2.1384,2.1386,2.1377,2.1386,2.1386,2.1386,2.1386,2.1386,0,2.1584,2.1574,2.1565,2.155,2.1541,2.1531,2.1518,2.1511,2.1501,2.1487,2.1476,2.1462,2.1448,2.143,2.1415,2.141,2.1404,2.1407,2.1407,2.1405,2.1391,2.1394,2.1412,2.1412,2.1412,2.1412,2.1412,2.1412,2.1591,2.1584,2.1575,2.1563,2.1552,2.1542,2.1535,2.1524,2.1514,2.1499,2.1488,2.1477,2.1461,2.1445,2.1432,2.1426,2.1422,2.1427,2.142,2.1408,2.1405,2.1403,2.1405,2.1426,2.1426,2.1434,2.1434,2.1434]}]]